Regional Weather Roundup
Issued by NWS Green Bay, WI

Home | Current Version | Previous Version | Text Only | Print | Product List | Glossary On
Versions: 1 2 3 4 5 6 7 8 9 10 11 12 13 14 15 16 17 18 19 20 21 22 23 24 25 26 27 28 29 30 31 32 33 34 35 36 37 38 39 40 41 42 43 44 45 46 47 48 49 50
371
ASUS43 KGRB 170011
RWRGRB

NORTH-CENTRAL AND NORTHEAST WISCONSIN REGIONAL WEATHER ROUNDUP
NATIONAL WEATHER SERVICE GREEN BAY WI
700 PM CDT MON OCT 16 2017

WIZ005-009-010>012-018-019-170100-
NORTH CENTRAL WISCONSIN

CITY           SKY/WX    TMP DP  RH WIND       PRES   REMARKS
IRONWOOD       CLEAR     53  33  46 S9        29.98F
MANITOWISH WTR CLEAR     47  33  57 S6        30.01F
ARBOR VITAE    CLEAR     47  35  64 S6        30.03S
EAGLE RIVER    CLEAR     48  32  53 S3        30.03F
LAND O LAKES   CLEAR     48  34  59 S3        30.03F
RHINELANDER    CLEAR     48  34  58 SW7       30.05F
PHILLIPS       CLEAR     49  34  57 S6        30.03F
ANTIGO         CLEAR     46  36  68 S7        30.08F
TOMAHAWK       CLEAR     44  34  69 CALM      30.06S
MERRILL        CLEAR     50  35  56 S3        30.07F
$$

WIZ013-073-170100-
NORTHEAST WISCONSIN

CITY           SKY/WX    TMP DP  RH WIND       PRES   REMARKS
IRON MOUNTAIN  CLEAR     49  34  56 S6        30.04F
MARINETTE      CLEAR     51  38  60 SW5       30.10F
OCONTO         CLEAR     50  37  61 CALM      30.10S
$$

WIZ017-030-035>037-045-170100-
CENTRAL WISCONSIN

CITY           SKY/WX    TMP DP  RH WIND       PRES   REMARKS
MEDFORD        CLEAR     46  35  64 S6        30.06F
WAUSAU         CLEAR     51  36  56 SW5       30.07F
MOSINEE        PTCLDY    46  37  71 S7        30.10F
MARSHFIELD     CLEAR     50  34  54 S6        30.08F
WISC RAPIDS    CLEAR     48  40  73 S5        30.11F
STEVENS POINT  CLEAR     47  36  66 S5        30.10F
WAUPACA        CLEAR     51  38  61 S3        30.12F
SHAWANO        CLEAR     54  38  55 CALM      30.09F
CLINTONVILLE   CLEAR     48  37  66 S6        30.10F
WAUTOMA        CLEAR     49  40  71 S5        30.13F
$$

WIZ038-039-048-051-170100-
FOX VALLEY

CITY           SKY/WX    TMP DP  RH WIND       PRES   REMARKS
NWS GREEN BAY  CLEAR     52  41  66 S7        30.11F
APPLETON       PTCLDY    48  36  61 SW7       30.11F
OSHKOSH        CLEAR     47  39  74 S7        30.13F
FOND DU LAC    CLEAR     51  36  56 S5        30.15F
$$

WIZ022-050-052-170100-
EAST CENTRAL WISCONSIN

CITY           SKY/WX    TMP DP  RH WIND       PRES   REMARKS
EPHRAIM        FAIR      48  38  68 S5        30.10S
WASHINGTON ISL NOT AVBL
STURGEON BAY   CLEAR     51  38  60 S6        30.12F
MANITOWOC      NOT AVBL
SHEBOYGAN      CLEAR     48  39  71 S5        30.15F
$$

LMZ563-521-522-541>543-170100-
LAKESHORE

STATION/POSITION TIME  TEMP    WIND        PRES    VSBY  WAVE
                       AIR SEA DIR/SP/G                  HT/PER
                 (UTC) (F)     (DEG/KT/KT) (MB)    (MI)  (FT/S)
SHEBOYGAN LKSHOR 0000   55     190/ 12/ 12 1021.0F
KEWAUNEE LKSHORE 2348   54     200/  7/ 10 1019.2F
NORTHPORT PIER   2340   53     180/  2/  5 1019.3S
N MID LAKE BUOY  2350   56 60  210/ 19/ 21 1019.8F         3/ 5
S GREEN BAY BUOY 0000   58 58  210/ 14/ 16 1019.0
SISTER BAY LKSHO 0004   52     180/  9/ 10   N/A
MENOMINEE LKSHOR 2348   54     200/  7/ 10 1018.7F
$$




USA.gov is the U.S. government's official web portal to all federal, state and local government web resources and services.